Weather Roundup
Issued by NWS Springfield, MO

Home | Current Version | Previous Version | Text Only | Print | Product List | Glossary On
Versions: 1 2 3 4 5 6 7 8 9 10 11 12 13 14 15 16 17 18 19 20 21 22 23 24 25 26 27 28 29 30 31 32 33 34 35 36 37 38 39 40 41 42 43 44 45 46 47 48 49 50
000
NZUS99 KSGF 191007
HRRSGF

HOURLY WEATHER
NATIONAL WEATHER SERVICE SPRINGFIELD MO
400 AM CST SUN FEB 19 2017

......SGF CWA......

CITY           SKY/WX    TMP DP  RH WIND       PRES   REMARKS
SPRINGFIELD    CLEAR     46  44  93 S6        29.94R FOG
JOPLIN         CLEAR     47  47 100 SE3       29.95R FOG
WEST PLAINS    FOG       40  39  97 CALM      29.97R VSB 1/4
ROLLA          FOG       48  48 100 S6        29.94R VSB 1/4
OSAGE BEACH    CLEAR     48  46  93 SE3       29.95R
BRANSON        CLEAR     46  46 100 CALM      29.97R

......SURROUNDING SGF CWA......

CITY           SKY/WX    TMP DP  RH WIND       PRES   REMARKS
CHANUTE        FOG       43  42  97 E5        29.92R VSB 1/4
PARSONS        FOG       39  38  96 E3        29.92F VSB 1/2
COFFEYVILLE    FOG       38  38 100 CALM      29.93R VSB 1/4
EMPORIA        FOG       43  43 100 SE5       29.89S VSB 1/2
GROVE OK       CLEAR     41  41 100 CALM      29.94S FOG
ROGERS AR      CLEAR     45  44  97 SE6       29.96R
SILOAM SPRINGS CLEAR     48  45  87 E5        29.94F
HARRISON AR    CLEAR     47  46  97 SE3       29.97R
NEAR YELLVILLE CLEAR     48  45  87 CALM      29.94R

......KANSAS AND MISSOURI......

CITY           SKY/WX    TMP DP  RH WIND       PRES   REMARKS
KANSAS CTY INT CLEAR     47  46  97 S7        29.90S
DOWNTOWN KC    PTCLDY    51  48  89 CALM      29.91R
COLUMBIA       CLEAR     46  45  96 S5        29.95R
SEDALIA        CLEAR     50  47  89 SW3       29.95R
ST JOSEPH      PTCLDY    37  34  89 CALM      29.88F
ST LOUIS       CLEAR     45  43  93 CALM      29.95S
SPIRIT OF STL  FOG       40  40 100 CALM      29.95R VSB 1/4
KIRKSVILLE     CLEAR     38  35  89 S3        29.93S
WICHITA        FOG       43  42  97 CALM      29.88S VSB 1/4
TOPEKA         PTCLDY    46  43  89 W3        29.90R
OLATHE         FOG       44  44 100 S6        29.91R VSB 1

......TENNESSEE......

CITY           SKY/WX    TMP DP  RH WIND       PRES   REMARKS
MEMPHIS        CLEAR     49  49 100 CALM      29.99R
NASHVILLE      PTCLDY    49  46  90 CALM      30.02R

......ARKANSAS.......

CITY           SKY/WX    TMP DP  RH WIND       PRES   REMARKS
FAYETTEVILLE   FOG       38  38 100 CALM      29.95S VSB 1/4
FT SMITH       CLEAR     49  47  93 NE6       29.95R FOG
LITTLE ROCK    FOG       47  47 100 CALM      30.00R VSB 1/16

......OKLAHOMA.......

CITY           SKY/WX    TMP DP  RH WIND       PRES   REMARKS
TULSA          FOG       46  46 100 CALM      29.90S VSB 1/2
PONCA CITY     CLEAR     48  45  89 E6        29.88F FOG
MCALESTER      CLEAR     56  53  90 SE5       29.91S
OKLAHOMA CITY  CLOUDY    52  52 100 SE12      29.84F FOG

......IOWA............

CITY           SKY/WX    TMP DP  RH WIND       PRES   REMARKS
DES MOINES     CLEAR     41  35  79 SE7       29.92R
QUAD CITIES    CLOUDY    31  26  82 CALM      29.93R

......ILLINOIS........

CITY           SKY/WX    TMP DP  RH WIND       PRES   REMARKS
QUINCY         CLEAR     45  42  89 SW5       29.94R
CHICAGO        CLEAR     37  33  85 CALM      29.92R



USA.gov is the U.S. government's official web portal to all federal, state and local government web resources and services.